Location: Oshawa
(43.9000°N, 78.8670°W)
Time: 19:11:59
(UTC-05:00)

CARTOSAT-1 - Pass Details

Date: 19 August 2017
Orbit: 618 x 619 km, 97.8° (Epoch: 19 November)

Event Time Altitude Azimuth Distance (km) Brightness Sun altitude
Exits shadow 22:34:46 35° 61° (ENE) 1,009 4.5 -22.4°
Drops below altitude 10° 22:38:27 10° 4° (N) 1,994 6.7 -22.9°
Sets 22:40:46 0° 356° (N) 2,904 7.8 -23.2°
